Погода в Поче

Россия / Архангельская область     62°11′29″N   38°10′31″E
темп.,
°C
ветер,
м/с
пор.,
м/с
влажн.,
%
обл.,
%
осадки,
мм/ч
давл.,
гПа
погр.,
м
6 августа, пт
пт600:00+13всв2570100 0.0 1018116
03:00+12св2673100 0.0 1019163
06:00+12св2664100 0.0 1019222
09:00+16св344599 0.0 1019582
12:00+20всв343755 0.0 10181806
15:00+19в3543100 0.0 10181539
18:00+17юв3656100 0.0 1018477
21:00+13вюв2776100 0.0 1019268
7 августа, сб
сб700:00+13всв21081100 0.0 1019423
03:00+14всв41177100 0.0 1019553
06:00+14всв41175100 0.0 1019513
09:00+17в5105836 0.0 1019796
12:00+21вюв6946100 0.0 10191666
15:00+21вюв6846100 0.0 10181659
18:00+20вюв41051100 0.0 10181688
21:00+17в51153100 0.0 10181067
8 августа, вс
вс800:00+16вюв41162100 0.0 1018940
03:00+15в51375100 0.2 1018847
06:00+15в61474100 0.2 1017996
09:00+13в61488100 0.2 1016753
12:00+13в51289100 0.1 1016651
15:00+13в51192100 0.1 1016602
18:00+13в41098100 1.4 1016482
21:00+13в3898100 1.9 1016378
9 августа, пн
пн900:00+13всв2599100 0.0 1016275
03:00+13всв2499100 0.1 1016223
06:00+13ссв129999 0.0 1016108
09:00+14ссв1297100 0.0 1016249
12:00+16с118798 0.0 1017472
15:00+18зсз0174100 0.1 1018626
18:00+19всв117292 0.0 1018561
21:00+15в259444 0.0 1018110
10 августа, вт
вт1000:00+14в2798100 0.0 1019161
03:00+15вюв2796100 0.0 1018195
06:00+16юв3993100 0.4 1018299
09:00+16юв3795100 2.3 1018290
12:00+19ююв2490100 0.3 1018527
15:00+22ююв237626 1.2 1018742
18:00+23юв126916 0.9 1018177
21:00+17юв229335 1.1 101920